Regional Weather Roundup
Issued by NWS

Home | Current Version | Previous Version | Text Only | Print | Product List | Glossary On
Versions: 1 2 3 4 5 6 7 8 9 10 11 12 13 14 15 16 17 18 19 20 21 22 23 24 25 26 27 28 29 30 31 32 33 34 35 36 37 38 39 40 41 42 43 44 45 46 47 48 49 50
921
ASUS44 KJAN 261110
RWRMS

MISSISSIPPI HOURLY WEATHER ROUNDUP
NATIONAL WEATHER SERVICE JACKSON MS
500 AM CST MON JAN 26 2015

NOTE: "FAIR: INDICATES FEW OR NO CLOUDS BELOW 12,000 FEET WITH NO
SIGNIFICANT WEATHER AND/OR OBSTRUCTIONS TO VISIBILITY.

MSZ001>002-007>008-010>013-018>021-025>028-034>036-261200-
NORTHWEST MISSISSIPPI

CITY           SKY/WX    TMP DP  RH WIND       PRES   REMARKS
CLARKSDALE     CLOUDY    39  36  87 N7        30.07S WCI  34
CLEVELAND      CLOUDY    42  36  78 N13       30.06S
GREENWOOD      CLOUDY    43  33  68 NW10      30.05R
GREENVILLE     CLOUDY    44  34  67 NW15G23   30.05F
GRENADA        CLOUDY    41  34  75 NW8       30.03S
OLIVE BRANCH   CLOUDY    36  34  93 NW14G23   30.04R WCI  27
OXFORD         CLOUDY    39  32  75 NW10G17   30.02S WCI  32
TUNICA         CLOUDY    39  32  75 NW17      30.07R WCI  30
$$

MSZ003>006-009-014>017-022>024-029>033-037>039-261200-
NORTHEAST MISSISSIPPI

CITY           SKY/WX    TMP DP  RH WIND       PRES   REMARKS
COLUMBUS AFB   CLOUDY    43  35  73 NW12      29.96S
CORINTH        MIX PCPN  37  32  81 NW13G20   29.98R WCI  29
GOLDN TRIANGLE CLOUDY    43  36  75 NW8       29.96S
STARKVILLE     CLOUDY    43  36  75 NW9G16    29.98F
TUPELO         CLOUDY    41  32  70 N10G24    29.98R
$$

MSZ040-058-261200-
CENTRAL MISSISSIPPI

CITY           SKY/WX    TMP DP  RH WIND       PRES   REMARKS
JACKSON INTL   CLOUDY    47  34  60 NW13G21   30.04R
JACKSON HAWKNS CLOUDY    46  34  62 NW9       30.05R
MERIDIAN KEY   CLOUDY    45  34  65 NW9       29.99R
MERIDIAN NAS   CLOUDY    46  35  65 NW17      29.99R
RAYMOND        CLOUDY    46  41  81 MISG      30.06R
VICKSBURG      CLOUDY    43  34  70 NW5       30.09R
$$

MSZ059>079-261200-
SOUTH MISSISSIPPI

CITY           SKY/WX    TMP DP  RH WIND       PRES   REMARKS
BROOKHAVEN     FAIR      45  34  65 NW7       30.06S
HATTIESBURG    CLEAR     46  34  62 NW12      30.04R
MCCOMB         CLEAR     44  33  65 NW8       30.04R
NATCHEZ        CLEAR     43  30  61 NW3       30.08S
PINE BELT      CLOUDY    45  32  61 NW7       30.03R
$$

MSZ080>082-261200-
COASTAL MISSISSIPPI

CITY           SKY/WX    TMP DP  RH WIND       PRES   REMARKS
BILOXI         CLEAR     44  37  73 VRB2      30.02R
PASCAGOULA     CLEAR     47  34  60 NW6       29.99S
GULFPORT       CLEAR     43  35  73 W6        30.02R
$$



USA.gov is the U.S. government's official web portal to all federal, state and local government web resources and services.